Regional Weather Roundup
Issued by NWS

Home | Current Version | Previous Version | Graphics & Text | Print | Product List | Glossary On
Versions: 1 2 3 4 5 6 7 8 9 10 11 12 13 14 15 16 17 18 19 20 21 22 23 24 25 26 27 28 29 30 31 32 33 34 35 36 37 38 39 40 41 42 43 44 45 46 47 48 49 50
000
ASUS43 KDMX 011107
RWRIA

WEATHER ROUNDUP FOR IOWA
NATIONAL WEATHER SERVICE DES MOINES IA
600 AM CDT SAT AUG 01 2015

NOTE: "FAIR" INDICATES FEW OR NO CLOUDS BELOW 12,000 FEET WITH NO
SIGNIFICANT WEATHER AND/OR OBSTRUCTIONS TO VISIBILITY.

* - THESE STATIONS ARE NOT NWS STATIONS...THUS NOT UNDER NWS
QUALITY CONTROL.  THEY ALSO DO NOT REPORT WEATHER SUCH
AS PRECIPITATION OR FOG.

IAZ001>003-012>014-020>022-031>034-043>046-011200-
   NORTHWEST IOWA

CITY           SKY/WX    TMP DP  RH WIND       PRES   REMARKS
CARROLL *      CLEAR     64  64 100 CALM      30.03S
CHEROKEE *     FOG       59  59 100 CALM      30.02F VSB 3/4
DENISON *      CLEAR     63  63 100 SE3       30.02S
LE MARS *      CLEAR     59  59 100 CALM      30.02F FOG
ORANGE CITY *  CLEAR     63  61  94 S5        30.01F
SHELDON *      CLEAR     63  61  94 S6        30.00F
SIOUX CITY     FOG       62  59  90 SE3       30.01F VSB 1
SPENCER        CLEAR     63  58  83 CALM      30.02F
STORM LAKE *   CLEAR     64  61  88 SW9       30.04S
$$

IAZ055>058-069>071-079>083-090>094-011200-
   SOUTHWEST IOWA

CITY           SKY/WX    TMP DP  RH WIND       PRES   REMARKS
ATLANTIC *     PTCLDY    63  63 100 N3        30.04S FOG
AUDUBON *      CLEAR     61  57  88 CALM      30.05S
CLARINDA *     CLEAR     66  66 100 CALM      30.05F
COUNCIL BLFS * CLEAR     66  66 100 S3        30.04S
CRESTON *      CLEAR     64  64 100 CALM      30.06F
HARLAN  *      FOG       61  61 100 CALM      30.06F VSB 0
LAMONI         CLEAR     68  64  87 CALM      30.05S
RED OAK *      PTCLDY    64  64 100 N3        30.03F
SHENANDOAH *   CLEAR     66  66 100 S3        30.03F
$$

IAZ047>049-059>061-072>074-084-011200-
   CENTRAL IOWA

CITY           SKY/WX    TMP DP  RH WIND       PRES   REMARKS
AMES           CLEAR     59  58  96 CALM      30.02F
ANKENY *       CLEAR     61  61 100 CALM      30.03S
CHARITON *     MOCLDY    68  64  88 CALM      30.04S
DES MOINES     PTCLDY    69  64  84 CALM      30.02F
GRINNELL*      CLEAR     63  61  94 SW6       30.04F
KNOXVILLE *    CLEAR     66  61  82 CALM      30.02F
MARSHALLTOWN     N/A     61  59  93 MISG      30.02F
PELLA *        CLEAR     64  64 100 CALM      30.04F
PERRY *          N/A     64  63  94 CALM      30.03S
$$

IAZ004>006-015-016-023>025-035-036-011200-
   NORTH CENTRAL IOWA

CITY           SKY/WX    TMP DP  RH WIND       PRES   REMARKS
ALGONA *       CLEAR     64  61  88 SW8       30.01F
CLARION *      CLEAR     57  55  94 S6        30.02S
ESTHERVILLE    CLEAR     62  59  90 W6        30.00F
FORT DODGE *   CLEAR     63  57  82 CALM      30.03S
MASON CITY     CLEAR     68  61  78 W12       30.01F
FOREST CITY *  CLEAR     59  59 100 SW6       30.01S
IOWA FALLS *     N/A     61  57  88 SW3       30.03F
$$

IAZ007>011-017>019-026>030-037>042-050>054-066-011200-
   NORTHEAST IOWA

CITY           SKY/WX    TMP DP  RH WIND       PRES   REMARKS
CEDAR RAPIDS   CLEAR     57  57 100 S3        30.01F
CHARLES CITY * CLEAR     59  59 100 S5        30.01S
CLINTON *      CLEAR     55  54  94 W6        30.04S
DECORAH *      PTCLDY    61  59  94 CALM      30.00F
DUBUQUE        CLEAR     58  56  93 SW5       30.02S
MONTICELLO *   CLEAR     55  55 100 CALM      30.02S
OELWEIN *      CLEAR    N/A N/A N/A MISG        N/A
WATERLOO       CLEAR     57  55  93 CALM      30.00F
$$

IAZ064-065-067-068-078-011200-
   EAST CENTRAL IOWA

CITY           SKY/WX    TMP DP  RH WIND       PRES   REMARKS
DAVENPORT      CLEAR     58  56  93 W3        30.03S
IOWA CITY      CLEAR     61  58  90 CALM      30.03F
MT. PLEASANT * CLEAR     63  59  88 CALM      30.04S
MUSCATINE *    CLEAR     61  57  88 CALM      30.03S
QUAD CITIES    CLEAR     59  55  87 SW3       30.02S
$$

IAZ062-063-075>077-085>089-095>099-011200-
   SOUTHEAST IOWA

CITY           SKY/WX    TMP DP  RH WIND       PRES   REMARKS
BURLINGTON     CLEAR     62  59  90 CALM      30.03F
FAIRFIELD *    CLEAR     63  61  94 SW3       30.04S
FORT MADISON * CLEAR     63  61  94 CALM      30.05R
KEOKUK *       CLEAR     66  64  94 CALM      30.04R
OSKALOOSA *      N/A     61  61 100 CALM      30.04S
CENTERVILLE *  PTCLDY    66  66 100 SE3       30.06S
OTTUMWA        CLEAR     62  62 100 SW3       30.02F
WASHINGTON *   CLEAR     61  61 100 SW3       30.05R
$$

ABBREVIATIONS USED IN REMARKS
   TC - TEMPERATURES IN CELSIUS
  WCI - WIND CHILL INDEX
   HX - HEAT INDEX
  VSB - VISIBILITY
$$



USA.gov is the U.S. government's official web portal to all federal, state and local government web resources and services.